Regional Weather Roundup
Issued by NWS Pendleton, OR

Home | Current Version | Previous Version | Text Only | Print | Product List | Glossary On
Versions: 1 2 3 4 5 6 7 8 9 10 11 12 13 14 15 16 17 18 19 20 21 22 23 24 25 26 27 28 29 30 31 32 33 34 35 36 37 38 39 40 41 42 43 44 45 46 47 48 49 50
000
ASUS46 KPDT 191825
RWRPDT
PENDLETON REGIONAL WEATHER ROUNDUP
NATIONAL WEATHER SERVICE PENDLETON OREGON
1100 AM PDT THU APR 19 2018

NOTE: FAIR INDICATES FEW OR NO CLOUDS BELOW 12,000 FEET WITH NO
SIGNIFICANT WEATHER AND/OR OBSTRUCTIONS TO VISIBILITY.

# INDICATES UNOFFICIAL STATION AND DATA

WAZ520-191910-
EAST SLOPES OF WASHINGTON CASCADES

CITY            SKY/WX      TMP DP  RH  WIND    PRES   REMARKS
#BULLFROG       N/A         51  33  50  W5      N/A
#CLE ELUM HS    N/A         56  33  42  CALM    30.12F
#EASTON DOT     N/A         50  37  61  N2      N/A
#ELK HTS DOT    N/A         52  52  100 N2      N/A
#GLENWOOD       N/A         55  38  53  S1      30.21R
#NELSON 3SW     N/A         49  36  61  CALM    30.43S
#NILE           N/A         53  29  39  CALM    29.51F
#TEANAWAY 4NE   N/A         53  40  61  S5      N/A
#TROUT LAKE 1NE N/A         54  36  50  CALM    30.21S
#TROUT LAKE 1E  N/A         54  36  50  CALM    30.20S
$$

WAZ521-191910-
SIMCOE HIGHLANDS

CITY            SKY/WX      TMP DP  RH  WIND    PRES   REMARKS
#BICKLETON HS   N/A         49  28  44  NE7     29.80R
#SATUS PASS DOT N/A         50  20  30  N2      N/A
#CENTERVILLE 1SWN/A         53  35  50  W1      30.16S
#GOLDENDALE 1NE N/A         53  -9   7  SW1     N/A
#GOLDENDALE 4W  N/A         57  21  24  SW3     30.21S
#GOODNOE HILLS  N/A         57  37  47  W5      30.11R
#LYLE 6NE       N/A         51  40  66  SW5     30.23R
#PITT 4SE       N/A         51  35  54  CALM    30.24R
$$

WAZ026-191910-
KITTITAS VALLEY

CITY            SKY/WX      TMP DP  RH  WIND    PRES   REMARKS
ELLENSBURG AP   SUNNY       55  35  47  CALM    30.18F
6HR MIN TEMP:   30; 6HR MAX TEMP:   55;

#ELLENSBURG CWU N/A         53  36  52  CALM    30.14F
#ELLENSBURG 3NE N/A         51  38  61  CALM    28.25F
#ELLENSBURG 1E  N/A         53  38  57  CALM    30.25F
#KITTITAS 3S    N/A         51  38  61  NE1     30.20F
#MANASTASH RDG  N/A         51  50  96  N3      N/A
#ROCKY CYN DOT  N/A         57  32  38  W7      N/A
#RYEGRASS DOT   N/A         53  26  35  CALM    N/A
$$

WAZ027-191910-
YAKIMA VALLEY

CITY            SKY/WX      TMP DP  RH  WIND    PRES   REMARKS
SUNNYSIDE AP    SUNNY       59  35  40  W6      30.19S
YAKIMA AIRPORT  SUNNY       62  27  26  N5      30.19S
6HR MIN TEMP:   34; 6HR MAX TEMP:   62;

YAKIMA-VAGABOND SUNNY       58  25  28  NE5     30.17S
6HR MIN TEMP:   36; 6HR MAX TEMP:   58;

#DONALD 2NE     N/A         65   7  10  S6      29.02F
#GRANDVIEW      N/A         59  29  32  W3      30.20F
#MABTON         N/A         57  34  42  NW1     30.19S
#MOXEE 2E       N/A         37  N/A N/A SW12    29.79S WCI 29
#NACHES 2SW     N/A         58  31  36  CALM    30.18S
#OUTLOOK DOT    N/A         59  28  30  CALM    30.16S
#PARKER DOT     N/A         61  28  28  S3      30.18S
#TERRACE HTS    N/A         66  37  34  NW1     30.16S
#TOPPENISH      N/A         58  33  39  CALM    30.12S
#I82 S UMTANUM RN/A         57  25  29  N3      N/A
#UNION GAP DOT  N/A         59  26  28  N5      30.22S
#W YAKIMA       N/A         58  32  37  S3      30.20S
#WHITE SWAN 5E  N/A         58  32  37  CALM    30.21S
#ZILLAH DOT     N/A         59  28  30  SW1     N/A
$$

WAZ028-191910-
LOWER COLUMBIA BASIN...WASHINGTON

CITY            SKY/WX      TMP DP  RH  WIND    PRES   REMARKS
HANFORD         SUNNY       59  28  30  N5      30.17F
6HR MIN TEMP:   41; 6HR MAX TEMP:   60;

PASCO           SUNNY       59  35  40  N8      30.20F
6HR MIN TEMP:   34; 6HR MAX TEMP:   59;

PROSSER AWOS    N/A         59  32  36  CALM    30.22S
RICHLAND AWOS   SUNNY       62  32  32  N6      30.20S
#BASIN CITY 5SW N/A         59  40  49  N3      30.17S
#BENTON CITY    N/A         58  33  39  N7      30.10S
#CONNELL 5N     N/A         58  36  44  NW6     30.18F
#CONNELL 5NW    N/A         56  37  49  N5      30.13F
#ELTOPIA 6NW    N/A         58  37  45  CALM    29.15S
#KAHLOTUS       N/A         56  37  49  S2      30.16F
#KENNEWICK 3S   N/A         57  36  45  CALM    30.20S
#PROSSER DOT    N/A         59  31  34  CALM    30.20S
#SAGEMOOR 2W    N/A         56  39  53  N3      30.05F
#TOUCHET 2S     N/A         54  42  64  NW2     30.17F
$$

WAZ029-191910-
FOOTHILLS OF THE BLUES...WASHINGTON

CITY            SKY/WX      TMP DP  RH  WIND    PRES   REMARKS
WALLA WALLA AP  SUNNY       52  38  59  SW8     30.18S
6HR MIN TEMP:   39; 6HR MAX TEMP:   53;

#CLYDE 6NW      N/A         53  35  50  N6      30.16F
#DELANEY DOT    N/A         54  36  50  W6      30.19S
#LOWDEN 2SE     N/A         54  42  64  W1      30.15F
#PLEASANT VIEW 1N/A         53  36  52  W1      30.21S
#PRESCOTT       N/A         58  41  53  CALM    30.17S
#WHITMAN COLLEGEN/A         52  40  63  CALM    30.23S
#WAITSBURG 5S   N/A         49  40  71  CALM    30.27S
#WAITSBURG 6SSE N/A         51  37  59  W3      30.01S
#WAITSBURG 8N   N/A          0  N/A N/A S8      29.94S
#WALLA WALLA 5E N/A         54  44  69  SW6     N/A
#WHITMAN MISSIONN/A         52  42  69  S6      30.20F
$$

WAZ030-191910-
BLUE MOUNTAINS...WASHINGTON

CITY            SKY/WX      TMP DP  RH  WIND    PRES   REMARKS
#DIXIE 5SE      N/A         46  37  71  W7      30.07R
$$

ORZ009-041-WAZ024-191910-
COLUMBIA RIVER GORGE

CITY            SKY/WX      TMP DP  RH  WIND    PRES   REMARKS
HOOD RIVER AP   SUNNY       55  39  55  CALM    30.22S
THE DALLES AP   SUNNY       61  40  46  N8      30.21S
6HR MIN TEMP:   44; 6HR MAX TEMP:   61;

#ARLINGTON AIRPON/A         57  37  47  NE3     30.20F
#CELILO DOT     N/A         60  37  42  NW1     N/A
#LYLE           N/A         56  41  57  N2      30.23S
#MARYHILL       N/A         56  35  45  N6      N/A
#MURDOCK        N/A         57  44  62  NW5     30.18R
#RUFUS DOT      N/A         56  N/A N/A W7      N/A

$$

ORZ510-191910-
NORTH CENTRAL OREGON

CITY            SKY/WX      TMP DP  RH  WIND    PRES   REMARKS
#ANTELOPE       N/A         47  35  63  NE7     30.11S
#CHENOWITH 1W   N/A         53  35  50  NW2     N/A
#COW CYN RST AREN/A         47  N/A N/A N9      N/A
#DUFUR          N/A         55  36  49  NW2     30.18R
#DUFUR 9E       N/A         50  34  54  CALM    30.27R
#GRASS VALLEY 1SN/A         52  35  52  NE10    30.19R
#KENT DOT       N/A         51  24  34  NE8     N/A
#MAUPIN SCHOOL  N/A         57  39  51  N2      30.25S
#SHANIKO 5WSW   N/A         46  31  56  N12     N/A    WCI 40
#SHANIKO 4NW    N/A         44  31  60  N15     30.16R WCI 37
#TYGH VALLEY 2NEN/A         56  39  53  N1      30.20S
#WAPANITIA AIRPON/A         52  34  50  NE3     30.24R
#WASCO DOT      N/A         56  34  43  NW3     N/A
#WASCO 5NE      N/A         55  39  55  SE2     30.20S
$$

ORZ511-191910-
CENTRAL OREGON

CITY            SKY/WX      TMP DP  RH  WIND    PRES   REMARKS
BEND AIRPORT    PTCLDY      48  32  54  N12     30.18R WCI 43
MADRAS AIRPORT  PTCLDY      50  36  58  N7      30.22R
PRINEVILLE AP   SUNNY       48  32  54  N7      30.17R
REDMOND AIRPORT MOCLDY      50  34  54  N9      30.17R
6HR MIN TEMP:   38; 6HR MAX TEMP:   50;

#ASHWOOD SCHOOL N/A         49  36  61  N5      30.13R
#BEND 1SW       N/A         45  33  63  NW3     N/A
#BEND-AWBREY    N/A         48  35  60  N5      30.22R
#BEND-KIM LN    N/A         48  33  56  NE8     30.15R
#CULVER         N/A         48  35  60  NE5     30.05R
#CULVER 8W      N/A         54  28  36  CALM    30.18R
#LAKE BILLY CHINN/A         51  N/A N/A N6      30.24R
#POWELL BUTTE   N/A         45  31  58  N10     30.11R
#PRINEVILLE     N/A         48  35  60  N3      30.28R
#PRINEVILLE 3N  N/A         48  35  60  N10     30.19R

$$


ORZ509-191910-
EAST SLOPES OF OREGON CASCADES

CITY            SKY/WX      TMP DP  RH  WIND    PRES   REMARKS
SISTERS AWOS    N/A         48  30  49  N13     30.14R WCI 43
#BLUE BOX PASS  N/A         41  N/A N/A CALM    N/A
#CAMP SHERMAN   N/A         56  31  38  SE1     30.22F
#LA PINE 4NW    N/A         43  32  65  CALM    30.23R
#LAVA BUTTE DOT N/A         40  29  64  NE1     N/A
#SISTERS ODOT   N/A         48  29  47  NE3     N/A
#SISTERS 3N     N/A         51  32  48  E3      30.17S
#SUNRIVER       N/A         46  35  65  N3      30.21R
#TUMALO 3W      N/A         44  31  60  N8      30.09R
#WANOGA BUTTE D N/A         33  N/A N/A N8      N/A

$$

ORZ044-191910-
LOWER COLUMBIA BASIN...OREGON

CITY            SKY/WX      TMP DP  RH  WIND    PRES   REMARKS
HERMISTON       SUNNY       59  34  39  VRB3    30.18F
6HR MIN TEMP:   37; 6HR MAX TEMP:   59;

#BOARDMAN SCHOOLN/A         59  37  44  N3      30.18F
#BOARDMAN 8SW   N/A         58  36  44  NE5     30.20S
#ECHO 8SW       N/A         57  35  43  CALM    30.20F
#I-84 EX 198 DOTN/A         50  34  54  E6      N/A
#IONE SCHOOL    N/A         54  31  41  NE2     30.21S
#UMATILLA       N/A         59  33  37  N1      30.12F
$$

ORZ507-191910-
NORTHERN FOOTHILLS OF THE BLUES

CITY            SKY/WX      TMP DP  RH  WIND    PRES   REMARKS
PENDLETON AIRPT SUNNY       52  34  50  VRB7    30.18S
6HR MIN TEMP:   36; 6HR MAX TEMP:   52;

#ADAMS 3WNW     N/A         51  39  63  W3      30.18F
#ATHENA         N/A         50  39  66  CALM    30.21S
#CAYUSE         N/A         49  37  63  SW5     30.18S
#HELIX SCHOOL   N/A         50  38  63  SW5     30.18S
#HELIX 3N       N/A         51  39  63  N2      30.17S
#HOLDMAN 5SE    N/A         51  40  66  W1      30.16S
#HOLDMAN 6E     N/A         50  38  63  SW1     29.99S
#M-F GROVE ELEM N/A         52  36  54  CALM    30.16R
#M-FREEWATER 5SEN/A         52  39  61  W6      30.16S
#PENDLETON DNTN N/A         56  34  43  NW2     N/A
#PDT AQUATIC CTRN/A         51  34  52  CALM    30.16S
#PDT SUNRIDGE   N/A         51  37  59  W1      30.20F
#PENDLETON 6SE  N/A         52  37  56  W3      30.14F
#PENDLETON 7NW  N/A         59  41  51  CALM    27.38S
#PILOT ROCK 1S  N/A         52  34  50  CALM    30.17S
#PILOT ROCK     N/A         52  37  56  CALM    30.18S
#TUTUILLA       N/A         51  35  54  W2      30.24S
#UMAPINE 2E     N/A         52  42  69  W2      30.16S

$$

ORZ508-191910-
SOUTHERN FOOTHILLS OF THE BLUES

CITY            SKY/WX      TMP DP  RH  WIND    PRES   REMARKS
#AJAX           N/A         51  27  39  CALM    30.32S
#CONDON 5W      N/A         46  28  49  NE8     30.14S
#FOSSIL SCHOOL  N/A         48  35  60  NE1     30.10S
#HEPPNER EOC    N/A         49  34  56  CALM    30.13F
#HEPPNER 4NE    N/A         47  32  56  N5      30.20S
#LEXINGTON 2SE  N/A         53  34  48  N3      30.16S
#MIKKALO        N/A         57  30  35  E7      30.29R
#OLEX 4N        N/A         54  35  48  E7      30.17S
#RUGGS 2SW      N/A         47  34  60  N6      30.23S

$$

ORZ502-503-191910-
BLUE MOUNTAINS

CITY            SKY/WX      TMP DP  RH  WIND    PRES   REMARKS
MEACHAM         SUNNY       46  32  58  VRB5    30.13S
6HR MIN TEMP:   30; 6HR MAX TEMP:   46;

#BATTLE MTN DOT N/A         42  30  62  N5      N/A
#GRANITE        N/A         49  27  42  N3      29.71S
#HEPPNER 15SE   N/A         47  35  63  N5      25.65R
#LADD CYN SMT   N/A         51  27  39  NW16G24 N/A
#LADD CREEK ODOTN/A         53  28  38  SW1     N/A
#N POWDER DOT   N/A         53  28  38  N23G32  N/A
#PIKES PEAK     N/A         41  35  79  SW9     27.99S
#SUMMERVILLE 5NWN/A         56  36  47  N9      26.73F
#TOLLGATE       N/A         42  31  65  NE2     30.14R
#TROY SCHOOL    N/A         59  38  45  CALM    29.96S
#UKIAH          N/A         46  35  65  N13     30.09S WCI 40
#WESTON 4E      N/A         45  38  76  SW3     30.14S
$$

ORZ505-191910-
JOHN DAY BASIN

CITY            SKY/WX      TMP DP  RH  WIND    PRES   REMARKS
JOHN DAY        PTCLDY      47  37  68  W8      30.11F
#ANTELOPE 9ESE  N/A         53  37  54  SW1     N/A
#MITCHELL 8NW   N/A         41  35  79  CALM    30.26R
#MONUMENT HS    N/A         53  37  54  S6      30.09F
#MT. VERNON 5SE N/A         46  38  73  W1      30.05S
$$

ORZ506-191910-
OCHOCO AND JOHN DAY HIGHLANDS

CITY            SKY/WX      TMP DP  RH  WIND    PRES   REMARKS
#HORSE RIDGE DO N/A         41  35  79  NW8     N/A
#KEYES SMT DOT  N/A         36  34  92  NW7     N/A
#PAULINA ODOT   N/A         50  30  46  SW3     N/A
#PINE MTN OBS   N/A         30  29  96  CALM    N/A
#PRAIRIE CITY   N/A         47  38  71  CALM    30.26R
#SENECA         N/A         44  N/A N/A N7      N/A
#SENECA 9NW     N/A         43  34  70  E1      30.09R
$$

ORZ049-191910-
GRANDE RONDE VALLEY

CITY            SKY/WX      TMP DP  RH  WIND    PRES   REMARKS
LA GRANDE       SUNNY       56  33  42  NW17    30.09S
#COVE SCHOOL    N/A         57  35  43  NW1     30.07F
#COVE 6NW       N/A         55  32  41  N15G24  30.09S
#ELGIN 3N       N/A         62  31  31  N1      30.06S
#ELGIN 1E       N/A         56  31  38  CALM    N/A
#IMBLER SCHOOL  N/A         54  29  38  N3      30.05S
#ISLAND CITY 4N N/A         55  46  72  S1      30.26F
#LADD CYN DOT   N/A         54  32  43  N14     N/A
#UNION 1S       N/A         55  31  40  NW6     30.08F
$$

ORZ050-191910-
WALLOWA COUNTY

CITY            SKY/WX      TMP DP  RH  WIND    PRES   REMARKS
#ENTERPRISE HS  N/A         52  31  44  CALM    29.99S
#IMNAHA SCHOOL  N/A         57  33  40  N7      30.08F
#IMNAHA 10S     N/A         54  33  45  E7      30.06S
#JOSEPH         N/A         49  23  36  W2      30.27R
#JOSEPH 3N      N/A         49  24  37  W7      30.12R
#JOSEPH 3W      N/A         50  31  48  CALM    29.94R
#LOSTINE        N/A         52  28  39  S1      29.92S
#LOSTINE 3SE    N/A         53  29  39  W1      30.17S
#MT HOWARD 8000 N/A         31  20  63  VRB7    30.06R
#PROMISE 1S     N/A         49  27  42  N3      30.19S
#WALLOWA LAKE   N/A         51  28  41  NE2     30.11R
#WALLOWA SCHOOL N/A         57  31  37  CALM    30.05F



$$



USA.gov is the U.S. government's official web portal to all federal, state and local government web resources and services.